"DATUM","GEM. RELATIEVE VOCHTIGHEID","GEMIDDELD"
2014-01-01,85.0,89.0
2014-01-02,85.0,89.0
2014-01-03,82.0,88.0
2014-01-04,84.0,88.0
2014-01-05,84.0,88.0
2014-01-06,83.0,88.0
2014-01-07,75.0,89.0
2014-01-08,89.0,88.0
2014-01-09,82.0,89.0
2014-01-10,85.0,87.0
2014-01-11,86.0,86.0
2014-01-12,89.0,88.0
2014-01-13,87.0,88.0
2014-01-14,93.0,87.0
2014-01-15,93.0,87.0
2014-01-16,92.0,87.0
2014-01-17,86.0,87.0
2014-01-18,81.0,89.0
2014-01-19,83.0,89.0
2014-01-20,93.0,88.0
2014-01-21,94.0,88.0
2014-01-22,84.0,88.0
2014-01-23,94.0,89.0
2014-01-24,92.0,88.0
2014-01-25,87.0,88.0
2014-01-26,84.0,87.0
2014-01-27,84.0,87.0
2014-01-28,76.0,86.0
2014-01-29,84.0,86.0
2014-01-30,83.0,86.0
2014-01-31,83.0,85.0
2014-02-01,83.0,85.0
2014-02-02,80.0,86.0
2014-02-03,83.0,86.0
2014-02-04,77.0,87.0
2014-02-05,76.0,87.0
2014-02-06,78.0,86.0
2014-02-07,87.0,85.0
2014-02-08,83.0,85.0
2014-02-09,74.0,83.0
2014-02-10,81.0,85.0
2014-02-11,82.0,85.0
2014-02-12,80.0,86.0
2014-02-13,84.0,85.0
2014-02-14,87.0,84.0
2014-02-15,65.0,85.0
2014-02-16,79.0,84.0
2014-02-17,86.0,83.0
2014-02-18,83.0,84.0
2014-02-19,88.0,84.0
2014-02-20,91.0,83.0
2014-02-21,80.0,82.0
2014-02-22,80.0,83.0
2014-02-23,80.0,84.0
2014-02-24,74.0,84.0
2014-02-25,77.0,83.0
2014-02-26,84.0,82.0
2014-02-27,89.0,81.0
2014-02-28,85.0,82.0
2014-03-01,87.0,81.0
2014-03-02,75.0,82.0
2014-03-03,82.0,81.0
2014-03-04,82.0,82.0
2014-03-05,83.0,82.0
2014-03-06,76.0,83.0
2014-03-07,75.0,81.0
2014-03-08,77.0,81.0
2014-03-09,63.0,81.0
2014-03-10,74.0,81.0
2014-03-11,78.0,81.0
2014-03-12,76.0,78.0
2014-03-13,77.0,80.0
2014-03-14,86.0,80.0
2014-03-15,74.0,80.0
2014-03-16,76.0,80.0
2014-03-17,75.0,80.0
2014-03-18,83.0,79.0
2014-03-19,70.0,80.0
2014-03-20,65.0,79.0
2014-03-21,81.0,79.0
2014-03-22,75.0,79.0
2014-03-23,82.0,78.0
2014-03-24,74.0,77.0
2014-03-25,72.0,77.0
2014-03-26,80.0,78.0
2014-03-27,66.0,77.0
2014-03-28,64.0,78.0
2014-03-29,64.0,77.0
2014-03-30,68.0,78.0
2014-03-31,62.0,78.0
2014-04-01,75.0,78.0
2014-04-02,72.0,77.0
2014-04-03,70.0,77.0
2014-04-04,82.0,79.0
2014-04-05,78.0,78.0
2014-04-06,85.0,77.0
2014-04-07,81.0,77.0
2014-04-08,77.0,76.0
2014-04-09,70.0,76.0
2014-04-10,78.0,75.0
2014-04-11,75.0,74.0
2014-04-12,70.0,77.0
2014-04-13,69.0,76.0
2014-04-14,69.0,75.0
2014-04-15,68.0,75.0
2014-04-16,70.0,75.0
2014-04-17,63.0,75.0
2014-04-18,72.0,73.0
2014-04-19,70.0,74.0
2014-04-20,63.0,72.0
2014-04-21,77.0,71.0
2014-04-22,78.0,72.0
2014-04-23,76.0,73.0
2014-04-24,85.0,74.0
2014-04-25,74.0,74.0
2014-04-26,71.0,75.0
2014-04-27,89.0,74.0
2014-04-28,84.0,76.0
2014-04-29,87.0,76.0
2014-04-30,87.0,75.0
2014-05-01,80.0,74.0
2014-05-02,72.0,74.0
2014-05-03,69.0,73.0
2014-05-04,73.0,72.0
2014-05-05,61.0,73.0
2014-05-06,71.0,73.0
2014-05-07,78.0,74.0
2014-05-08,88.0,72.0
2014-05-09,81.0,74.0
2014-05-10,87.0,73.0
2014-05-11,88.0,72.0
2014-05-12,84.0,73.0
2014-05-13,76.0,73.0
2014-05-14,76.0,73.0
2014-05-15,72.0,74.0
2014-05-16,65.0,74.0
2014-05-17,72.0,74.0
2014-05-18,73.0,75.0
2014-05-19,65.0,73.0
2014-05-20,65.0,75.0
2014-05-21,78.0,74.0
2014-05-22,67.0,72.0
2014-05-23,71.0,73.0
2014-05-24,72.0,75.0
2014-05-25,70.0,75.0
2014-05-26,83.0,75.0
2014-05-27,94.0,75.0
2014-05-28,96.0,75.0
2014-05-29,91.0,75.0
2014-05-30,74.0,74.0
2014-05-31,71.0,74.0
2014-06-01,73.0,73.0
2014-06-02,72.0,74.0
2014-06-03,75.0,75.0
2014-06-04,89.0,75.0
2014-06-05,74.0,73.0
2014-06-06,63.0,74.0
2014-06-07,67.0,74.0
2014-06-08,75.0,74.0
2014-06-09,81.0,74.0
2014-06-10,79.0,74.0
2014-06-11,65.0,74.0
2014-06-12,68.0,74.0
2014-06-13,70.0,74.0
2014-06-14,68.0,76.0
2014-06-15,68.0,74.0
2014-06-16,76.0,73.0
2014-06-17,77.0,72.0
2014-06-18,82.0,73.0
2014-06-19,81.0,75.0
2014-06-20,76.0,75.0
2014-06-21,73.0,75.0
2014-06-22,72.0,75.0
2014-06-23,74.0,75.0
2014-06-24,75.0,75.0
2014-06-25,70.0,75.0
2014-06-26,68.0,75.0
2014-06-27,72.0,76.0
2014-06-28,74.0,76.0
2014-06-29,74.0,76.0
2014-06-30,75.0,75.0
2014-07-01,71.0,75.0
2014-07-02,68.0,75.0
2014-07-03,65.0,76.0
2014-07-04,62.0,75.0
2014-07-05,81.0,75.0
2014-07-06,84.0,75.0
2014-07-07,72.0,75.0
2014-07-08,92.0,77.0
2014-07-09,95.0,77.0
2014-07-10,84.0,76.0
2014-07-11,87.0,76.0
2014-07-12,83.0,76.0
2014-07-13,84.0,76.0
2014-07-14,80.0,77.0
2014-07-15,85.0,77.0
2014-07-16,76.0,77.0
2014-07-17,72.0,77.0
2014-07-18,62.0,78.0
2014-07-19,61.0,76.0
2014-07-20,81.0,77.0
2014-07-21,95.0,77.0
2014-07-22,73.0,77.0
2014-07-23,62.0,77.0
2014-07-24,63.0,77.0
2014-07-25,80.0,78.0
2014-07-26,82.0,78.0
2014-07-27,79.0,79.0
2014-07-28,90.0,78.0
2014-07-29,84.0,78.0
2014-07-30,77.0,77.0
2014-07-31,78.0,78.0
2014-08-01,75.0,78.0
2014-08-02,84.0,78.0
2014-08-03,77.0,78.0
2014-08-04,74.0,79.0
2014-08-05,76.0,80.0
2014-08-06,84.0,77.0
2014-08-07,89.0,78.0
2014-08-08,91.0,79.0
2014-08-09,77.0,78.0
2014-08-10,86.0,78.0
2014-08-11,73.0,78.0
2014-08-12,76.0,79.0
2014-08-13,75.0,79.0
2014-08-14,84.0,79.0
2014-08-15,82.0,79.0
2014-08-16,75.0,79.0
2014-08-17,88.0,80.0
2014-08-18,85.0,79.0
2014-08-19,86.0,79.0
2014-08-20,81.0,79.0
2014-08-21,75.0,80.0
2014-08-22,84.0,80.0
2014-08-23,80.0,80.0
2014-08-24,80.0,80.0
2014-08-25,89.0,80.0
2014-08-26,91.0,79.0
2014-08-27,80.0,80.0
2014-08-28,85.0,80.0
2014-08-29,79.0,80.0
2014-08-30,88.0,81.0
2014-08-31,86.0,81.0
2014-09-01,81.0,81.0
2014-09-02,83.0,81.0
2014-09-03,80.0,81.0
2014-09-04,82.0,81.0
2014-09-05,87.0,80.0
2014-09-06,92.0,80.0
2014-09-07,84.0,80.0
2014-09-08,79.0,82.0
2014-09-09,83.0,82.0
2014-09-10,80.0,82.0
2014-09-11,81.0,82.0
2014-09-12,83.0,81.0
2014-09-13,84.0,82.0
2014-09-14,87.0,84.0
2014-09-15,84.0,83.0
2014-09-16,86.0,82.0
2014-09-17,82.0,83.0
2014-09-18,80.0,83.0
2014-09-19,91.0,83.0
2014-09-20,89.0,82.0
2014-09-21,77.0,83.0
2014-09-22,70.0,83.0
2014-09-23,80.0,84.0
2014-09-24,89.0,84.0
2014-09-25,79.0,84.0
2014-09-26,92.0,85.0
2014-09-27,88.0,84.0
2014-09-28,88.0,84.0
2014-09-29,93.0,85.0
2014-09-30,90.0,85.0
2014-10-01,91.0,85.0
2014-10-02,92.0,85.0
2014-10-03,87.0,85.0
2014-10-04,84.0,85.0
2014-10-05,82.0,86.0
2014-10-06,88.0,85.0
2014-10-07,84.0,86.0
2014-10-08,89.0,86.0
2014-10-09,80.0,86.0
2014-10-10,85.0,85.0
2014-10-11,96.0,86.0
2014-10-12,94.0,86.0
2014-10-13,83.0,87.0
2014-10-14,92.0,87.0
2014-10-15,89.0,87.0
2014-10-16,91.0,86.0
2014-10-17,92.0,86.0
2014-10-18,85.0,86.0
2014-10-19,84.0,86.0
2014-10-20,80.0,86.0
2014-10-21,87.0,87.0
2014-10-22,81.0,86.0
2014-10-23,85.0,86.0
2014-10-24,91.0,86.0
2014-10-25,89.0,86.0
2014-10-26,84.0,86.0
2014-10-27,85.0,86.0
2014-10-28,89.0,87.0
2014-10-29,97.0,86.0
2014-10-30,97.0,88.0
2014-10-31,91.0,87.0
2014-11-01,86.0,87.0
2014-11-02,82.0,88.0
2014-11-03,85.0,88.0
2014-11-04,94.0,88.0
2014-11-05,99.0,87.0
2014-11-06,96.0,88.0
2014-11-07,87.0,88.0
2014-11-08,84.0,88.0
2014-11-09,87.0,87.0
2014-11-10,85.0,88.0
2014-11-11,85.0,88.0
2014-11-12,89.0,88.0
2014-11-13,90.0,88.0
2014-11-14,86.0,88.0
2014-11-15,94.0,88.0
2014-11-16,96.0,89.0
2014-11-17,87.0,89.0
2014-11-18,90.0,88.0
2014-11-19,89.0,88.0
2014-11-20,86.0,87.0
2014-11-21,84.0,89.0
2014-11-22,85.0,88.0
2014-11-23,89.0,89.0
2014-11-24,87.0,88.0
2014-11-25,89.0,89.0
2014-11-26,86.0,89.0
2014-11-27,88.0,90.0
2014-11-28,85.0,90.0
2014-11-29,87.0,90.0
2014-11-30,93.0,91.0
2014-12-01,86.0,89.0
2014-12-02,86.0,89.0
2014-12-03,83.0,89.0
2014-12-04,85.0,88.0
2014-12-05,90.0,88.0
2014-12-06,92.0,88.0
2014-12-07,89.0,89.0
2014-12-08,88.0,89.0
2014-12-09,93.0,89.0
2014-12-10,78.0,89.0
2014-12-11,77.0,89.0
2014-12-12,85.0,90.0
2014-12-13,84.0,89.0
2014-12-14,87.0,89.0
2014-12-15,90.0,88.0
2014-12-16,88.0,89.0
2014-12-17,92.0,89.0
2014-12-18,91.0,89.0
2014-12-19,79.0,90.0
2014-12-20,72.0,89.0
2014-12-21,83.0,90.0
2014-12-22,85.0,91.0
2014-12-23,78.0,89.0
2014-12-24,79.0,90.0
2014-12-25,82.0,89.0
2014-12-26,91.0,90.0
2014-12-27,87.0,89.0
2014-12-28,76.0,90.0
2014-12-29,88.0,89.0
2014-12-30,80.0,88.0
2014-12-31,84.0,89.0
